Starlink 30769

operational
NORAD ID: 58138 Int'l Des: 2023-162 Owner: SPXS Country: US Constellation: starlink
LEOCIRCULAR

Über Starlink 30769

Beschreibung wird geladen...

Live-Position

3D-Globus wird geladen...

Nächste Überflüge

Höhenverlauf

Altitude vs Time

uPlot chart will show altitude changes over time

Zweizeiliger Elementsatz

1 58138U 23162W 25258.57258398 .00014078 00000-0 10564-2 0 9996
2 58138 43.0058 4.9738 0001595 280.0344 80.0318 15.02492607105955
Epoch: 15. Sept. 2025 • Age: 12 hours

Aktueller Status

Höhe 566.3 km
Geschwindigkeit 7.58 km/s
Subsatellitenpunkt -29.19°S, 165.13°W
Startdatum 22. Okt. 2023
Alter 1.9 years
Typ internet

Technische Details

Klassifizierung Payload
Masse 730.00 kg
Trockenmasse 700.00 kg
Gesamtmasse 730.00 kg
Länge 0.30 m
Durchmesser 4.10 m
Spannweite 29.00 m
Form Box + pan
Hersteller SPXS
Bus-Typ Starlink V2M
Phasenstatus In Orbit
Besitzer/Staat SPXS/US

Große Konstellationen

Loading constellations...